Hourly Weather Fria

Today, 24 January, Sunday

Time Temperature Precipitation Wind Pressure Humidity
00:00 +22°C° 0 mm 1 mps 752 mmHg 92%
01:00 +22°C° 0 mm 1 mps 752 mmHg 93%
02:00 +22°C° 0 mm 1 mps 752 mmHg 93%
03:00 +21°C° 0 mm 1 mps 752 mmHg 93%
04:00 +21°C° 0 mm 1 mps 752 mmHg 93%
05:00 +21°C° 0 mm 1 mps 752 mmHg 93%
06:00 +22°C° 0 mm 1 mps 752 mmHg 85%
07:00 +24°C° 0 mm 1 mps 752 mmHg 76%
08:00 +26°C° 0 mm 1 mps 753 mmHg 67%
09:00 +30°C° 0 mm 1 mps 753 mmHg 53%
10:00 +33°C° 0 mm 1 mps 752 mmHg 39%
11:00 +37°C° 0 mm 1 mps 752 mmHg 25%
12:00 +39°C° 0 mm 1 mps 751 mmHg 23%
13:00 +40°C° 0 mm 1 mps 751 mmHg 20%
14:00 +41°C° 0 mm 1 mps 750 mmHg 18%
15:00 +38°C° 0 mm 2 mps 750 mmHg 27%
16:00 +36°C° 0 mm 3 mps 749 mmHg 36%
17:00 +33°C° 0 mm 4 mps 749 mmHg 45%
18:00 +29°C° 0 mm 3 mps 750 mmHg 56%
19:00 +26°C° 0 mm 2 mps 750 mmHg 68%
20:00 +24°C° 0 mm 1 mps 751 mmHg 80%
21:00 +23°C° 0 mm 1 mps 751 mmHg 83%
22:00 +21°C° 0 mm 0 mps 751 mmHg 86%
23:00 +20°C° 0 mm 0 mps 752 mmHg 88%

Tomorrow, 25 January, Monday

Time Temperature Precipitation Wind Pressure Humidity
00:00 +20°C° 0 mm 0 mps 751 mmHg 89%
01:00 +19°C° 0 mm 0 mps 751 mmHg 90%
02:00 +21°C° 0 mm 1 mps 751 mmHg 91%
03:00 +21°C° 0 mm 1 mps 751 mmHg 91%
04:00 +20°C° 0 mm 1 mps 751 mmHg 91%
05:00 +20°C° 0 mm 1 mps 751 mmHg 91%
06:00 +22°C° 0 mm 1 mps 752 mmHg 82%
07:00 +24°C° 0 mm 1 mps 752 mmHg 72%
08:00 +24°C° 0 mm 0 mps 752 mmHg 63%
09:00 +28°C° 0 mm 0 mps 752 mmHg 51%
10:00 +33°C° 0 mm 0 mps 752 mmHg 38%
11:00 +37°C° 0 mm 0 mps 752 mmHg 26%
12:00 +40°C° 0 mm 1 mps 752 mmHg 24%
13:00 +40°C° 0 mm 1 mps 751 mmHg 22%
14:00 +40°C° 0 mm 2 mps 750 mmHg 20%
15:00 +38°C° 0 mm 2 mps 750 mmHg 29%
16:00 +35°C° 0 mm 3 mps 750 mmHg 38%
17:00 +33°C° 0 mm 4 mps 750 mmHg 47%
18:00 +29°C° 0 mm 3 mps 750 mmHg 61%
19:00 +26°C° 0 mm 2 mps 751 mmHg 75%
20:00 +24°C° 0 mm 1 mps 752 mmHg 89%
21:00 +21°C° 0 mm 0 mps 752 mmHg 91%
22:00 +21°C° 0 mm 0 mps 752 mmHg 92%
23:00 +21°C° 0 mm 0 mps 752 mmHg 93%

Day after tomorrow, 26 January, Tuesday

Time Temperature Precipitation Wind Pressure Humidity
00:00 +20°C° 0 mm 0 mps 752 mmHg 94%
01:00 +20°C° 0 mm 0 mps 752 mmHg 94%
02:00 +20°C° 0 mm 0 mps 752 mmHg 95%
03:00 +20°C° 0 mm 0 mps 752 mmHg 95%
04:00 +22°C° 0 mm 1 mps 752 mmHg 95%
05:00 +21°C° 0 mm 1 mps 752 mmHg 96%
06:00 +23°C° 0 mm 1 mps 752 mmHg 88%
07:00 +25°C° 0 mm 1 mps 753 mmHg 81%
08:00 +26°C° 0 mm 1 mps 753 mmHg 73%
09:00 +30°C° 0 mm 1 mps 753 mmHg 59%
10:00 +34°C° 0 mm 1 mps 753 mmHg 45%
11:00 +39°C° 0 mm 1 mps 753 mmHg 31%
12:00 +40°C° 0 mm 1 mps 752 mmHg 28%
13:00 +40°C° 0 mm 1 mps 752 mmHg 24%
14:00 +41°C° 0 mm 1 mps 751 mmHg 21%
15:00 +38°C° 0 mm 2 mps 751 mmHg 30%
16:00 +35°C° 0 mm 3 mps 751 mmHg 40%
17:00 +33°C° 0 mm 4 mps 750 mmHg 49%
18:00 +29°C° 0 mm 3 mps 751 mmHg 61%
19:00 +27°C° 0 mm 2 mps 752 mmHg 73%
20:00 +22°C° 0 mm 0 mps 752 mmHg 86%
21:00 +22°C° 0 mm 0 mps 753 mmHg 88%
22:00 +21°C° 0 mm 0 mps 753 mmHg 90%
23:00 +21°C° 0 mm 0 mps 753 mmHg 93%

27 January, Wednesday

Time Temperature Precipitation Wind Pressure Humidity
00:00 +21°C° 0 mm 0 mps 753 mmHg 93%
01:00 +20°C° 0 mm 0 mps 753 mmHg 94%
02:00 +22°C° 0 mm 1 mps 752 mmHg 94%
03:00 +22°C° 0 mm 1 mps 752 mmHg 94%
04:00 +21°C° 0 mm 1 mps 752 mmHg 95%
05:00 +21°C° 0 mm 1 mps 752 mmHg 95%
06:00 +23°C° 0 mm 1 mps 753 mmHg 86%
07:00 +25°C° 0 mm 1 mps 753 mmHg 78%
08:00 +26°C° 0 mm 1 mps 753 mmHg 69%
09:00 +30°C° 0 mm 1 mps 753 mmHg 55%
10:00 +33°C° 0 mm 0 mps 753 mmHg 41%
11:00 +37°C° 0 mm 0 mps 753 mmHg 26%
12:00 +40°C° 0 mm 1 mps 752 mmHg 24%
13:00 +41°C° 0 mm 1 mps 751 mmHg 21%
14:00 +41°C° 0 mm 2 mps 750 mmHg 19%
15:00 +38°C° 0 mm 2 mps 750 mmHg 29%
16:00 +35°C° 0 mm 3 mps 750 mmHg 40%
17:00 +32°C° 0 mm 4 mps 750 mmHg 51%
18:00 +29°C° 0 mm 3 mps 750 mmHg 64%
19:00 +26°C° 0 mm 2 mps 751 mmHg 77%
20:00 +22°C° 0 mm 0 mps 751 mmHg 90%
21:00 +21°C° 0 mm 0 mps 752 mmHg 91%
22:00 +21°C° 0 mm 0 mps 752 mmHg 92%
23:00 +21°C° 0 mm 0 mps 753 mmHg 93%

28 January, Thursday

Time Temperature Precipitation Wind Pressure Humidity
00:00 +20°C° 0 mm 0 mps 752 mmHg 93%
01:00 +20°C° 0 mm 0 mps 752 mmHg 94%
02:00 +20°C° 0 mm 0 mps 752 mmHg 94%
03:00 +20°C° 0 mm 0 mps 752 mmHg 94%
04:00 +19°C° 0 mm 0 mps 752 mmHg 95%
05:00 +21°C° 0 mm 1 mps 752 mmHg 95%
06:00 +23°C° 0 mm 1 mps 752 mmHg 87%
07:00 +25°C° 0 mm 1 mps 753 mmHg 80%
08:00 +26°C° 0 mm 1 mps 753 mmHg 72%
09:00 +30°C° 0 mm 1 mps 753 mmHg 58%
10:00 +32°C° 0 mm 0 mps 753 mmHg 44%
11:00 +36°C° 0 mm 0 mps 753 mmHg 31%
12:00 +37°C° 0 mm 0 mps 752 mmHg 28%
13:00 +41°C° 0 mm 1 mps 751 mmHg 25%
14:00 +41°C° 0 mm 1 mps 751 mmHg 22%
15:00 +38°C° 0 mm 2 mps 750 mmHg 31%
16:00 +35°C° 0 mm 3 mps 750 mmHg 40%
17:00 +33°C° 0 mm 4 mps 750 mmHg 49%

29 January, Friday

Time Temperature Precipitation Wind Pressure Humidity
Show more

We Need Your Consent

Meteoprog and our Service Providers may store and access personal data such as cookies, device identifiers or other similar technologies on your device and process such data to personalise content and ads, as well as provide social media features and to analyse the traffic.

  • Store and/or access information on your device

    Cookies, device identifiers or other information can be stored or accessed on your device for the purposes indicated above.

  • Personalised ads and content, ad and content measurement, audience insights, and products development

    Ads and content can be personalised based on a profile. More data can be added to better personalise ads and content. Ad and content performance can be measured. Insights about the audience who saw the ads and content can be derived. Such data can be used to develop or improve user’s experience, systems and software.

By clicking ‘I Agree’ you will allow the use of indicated cookies, device identifiers, web beacons or other similar technologies. Your settings can be changed in the browser on your device.

For certain purposes, legitimate interests may be relied on, rather than consent. You can read more about this in our Privacy and Cookie Policy.